Retour au catalogue

STARLINK-35715

ActifCommunicationsVLEO
NORAD 66841·PAYLOAD·🇺🇸 United States

Lancé Dec 2, 2025 depuis Vandenberg Space Force Base

Loading…

Prochains Passages (prochaines 24 heures)

TLE

FraisSource: CelesTrak SupGP

Époque: Sep 14, 2026, 21:23 UTC

1 66841C 25280W   26257.89145833  .00015018  00000+0  12578-2 0  2571
2 66841  70.0010 217.5480 0003438 265.0672  72.3003 14.98346600    15

Suivez STARLINK-35715 en temps réel avec AllMySat

Download on the App Store